This demonstration page uses our WeatherBlox Daily Observations layout. Learn more.

Left ArrowRight Arrow

39.29038, -76.61219

Hourly Observations for August 14, 2022

Temp ( °F °C ) Dew Point ( °F °C ) Humidity (%) Winds ( mph kmh ) Pressure ( in mb ) Visibility ( mi km ) Precip ( " mm )
12:54 am 00:54 Mostly Cloudy 67 19.4 59 15 76 76 WSW 3 6 30.07 1018 10 16 0.00 0.00
1:54 am 01:54 Mostly Cloudy 67 19.4 59 15 76 76 Calm 30.05 1018 10 16 0.00 0.00
2:54 am 02:54 Cloudy 66 18.9 59 15 78 78 Calm 30.04 1017 10 16 0.00 0.00
3:54 am 03:54 Cloudy 68 20 58 14.4 70 70 Calm 30.04 1017 10 16 0.00 0.00
4:54 am 04:54 Cloudy 67 19.4 59 15 76 76 Calm 30.04 1017 10 16 0.00 0.00
5:54 am 05:54 Mostly Cloudy 67 19.4 60 15.6 79 79 Calm 30.05 1018 10 16 0.00 0.00
6:54 am 06:54 Mostly Cloudy 66 18.9 61 16.1 84 84 Calm 30.06 1018 10 16 0.00 0.00
7:54 am 07:54 Mostly Cloudy 68 20 60 15.6 76 76 W 3 6 30.06 1018 10 16 0.00 0.00
8:54 am 08:54 Mostly Cloudy 72 22.2 58 14.4 61 61 Calm 30.06 1018 10 16 0.00 0.00
9:54 am 09:54 Partly Cloudy 78 25.6 57 13.9 48 48 SSW 5 7 30.05 1018 10 16 0.00 0.00
10:54 am 10:54 Partly Cloudy 80 26.7 55 12.8 42 42 SSW 9 15 30.05 1018 10 16 0.00 0.00
11:54 am 11:54 Partly Cloudy 82 27.8 53 11.7 37 37 S 8 13 30.04 1017 10 16 0.00 0.00
12:54 pm 12:54 Partly Cloudy 83 28.3 51 10.6 33 33 SE 12 19 30.03 1017 10 16 0.00 0.00
1:54 pm 13:54 Mostly Cloudy 83 28.3 55 12.8 38 38 S 7 11 30.02 1017 10 16 0.00 0.00
2:54 pm 14:54 Mostly Cloudy 83 28.3 56 13.3 40 40 S 8 13 30.01 1016 10 16 0.00 0.00
3:54 pm 15:54 Mostly Cloudy 82 27.8 56 13.3 41 41 SE 8 13 30.00 1016 10 16 0.00 0.00
4:54 pm 16:54 Mostly Cloudy 80 26.7 56 13.3 44 44 VRB 7 11 29.99 1016 10 16 0.00 0.00
5:54 pm 17:54 Mostly Cloudy 79 26.1 54 12.2 42 42 S 6 9 30.00 1016 10 16 0.00 0.00
6:54 pm 18:54 Mostly Cloudy 78 25.6 57 13.9 48 48 S 5 7 29.99 1016 10 16 0.00 0.00
7:54 pm 19:54 Mostly Cloudy 76 24.4 59 15 56 56 WSW 7 11 29.99 1016 10 16 0.01 0.13
8:54 pm 20:54 Mostly Cloudy with Light Rain 74 23.3 59 15 60 60 W 8 13 30.00 1016 10 16 0.01 0.13
9:54 pm 21:54 Mostly Cloudy 73 22.8 60 15.6 64 64 W 6 9 30.00 1016 10 16 0.01 0.13
10:54 pm 22:54 Mostly Cloudy with Light Rain 72 22.2 61 16.1 68 68 SW 3 6 30.00 1016 10 16 0.01 0.13
11:54 pm 23:54 Cloudy with Light Rain 70 21.1 62 16.7 76 76 Calm 30.01 1016 9 14 0.01 0.13

Powered by AerisWeather